TimeEST,TemperatureF,Dew PointF,Humidity,Sea Level PressureIn,VisibilityMPH,Wind Direction,Wind SpeedMPH,Gust SpeedMPH,PrecipitationIn,Events,Conditions,WindDirDegrees,DateUTC
12:53 AM,54.0,48.0,80,30.10,10.0,North,4.6,-,N/A,,Clear,10,2012-11-25 05:53:00
1:53 AM,53.1,46.9,80,30.09,10.0,North,4.6,-,N/A,,Clear,360,2012-11-25 06:53:00
2:53 AM,52.0,46.0,80,30.09,10.0,Calm,Calm,-,N/A,,Clear,0,2012-11-25 07:53:00
3:53 AM,50.0,46.9,89,30.08,10.0,Calm,Calm,-,N/A,,Clear,0,2012-11-25 08:53:00
4:53 AM,48.9,46.0,90,30.08,10.0,Calm,Calm,-,N/A,,Clear,0,2012-11-25 09:53:00
5:53 AM,48.9,46.0,90,30.09,10.0,North,3.5,-,N/A,,Clear,360,2012-11-25 10:53:00
6:53 AM,48.9,45.0,86,30.11,10.0,Calm,Calm,-,N/A,,Clear,0,2012-11-25 11:53:00
7:53 AM,51.1,46.0,83,30.14,10.0,North,3.5,-,N/A,,Clear,360,2012-11-25 12:53:00
8:53 AM,57.0,44.1,62,30.15,10.0,NE,6.9,-,N/A,,Clear,40,2012-11-25 13:53:00
9:53 AM,62.1,44.1,52,30.17,10.0,NE,5.8,-,N/A,,Clear,40,2012-11-25 14:53:00
10:53 AM,66.0,44.1,45,30.17,10.0,North,4.6,-,N/A,,Clear,350,2012-11-25 15:53:00
11:53 AM,68.0,44.1,42,30.14,10.0,East,3.5,-,N/A,,Clear,90,2012-11-25 16:53:00
12:53 PM,70.0,41.0,35,30.11,10.0,North,4.6,-,N/A,,Clear,360,2012-11-25 17:53:00
1:53 PM,71.1,41.0,34,30.09,10.0,North,6.9,-,N/A,,Clear,350,2012-11-25 18:53:00
2:53 PM,73.0,41.0,31,30.08,10.0,North,5.8,-,N/A,,Clear,10,2012-11-25 19:53:00
3:53 PM,72.0,41.0,33,30.07,10.0,NE,3.5,-,N/A,,Clear,40,2012-11-25 20:53:00
4:53 PM,71.1,39.9,32,30.08,10.0,NE,3.5,-,N/A,,Clear,40,2012-11-25 21:53:00
5:53 PM,66.0,43.0,43,30.09,10.0,North,3.5,-,N/A,,Clear,360,2012-11-25 22:53:00
6:53 PM,61.0,46.9,60,30.11,10.0,NW,3.5,-,N/A,,Clear,310,2012-11-25 23:53:00
7:53 PM,59.0,46.9,64,30.12,10.0,Calm,Calm,-,N/A,,Clear,0,2012-11-26 00:53:00
8:53 PM,57.0,48.0,72,30.14,10.0,Calm,Calm,-,N/A,,Clear,0,2012-11-26 01:53:00
9:53 PM,55.0,48.0,77,30.14,10.0,Calm,Calm,-,N/A,,Clear,0,2012-11-26 02:53:00
10:53 PM,54.0,48.0,80,30.14,10.0,Calm,Calm,-,N/A,,Clear,0,2012-11-26 03:53:00
11:53 PM,52.0,46.9,83,30.14,10.0,Calm,Calm,-,N/A,,Clear,0,2012-11-26 04:53:00